User: anonymous   Login
Location: Unspecified
(0.0000°N, 0.0000°E)
Time: 17:28:35
(UTC+00:00)
Language:

COSMOS-2409 - Orbit

View from above orbital plane
View from above orbital plane
View from above satellite
View from above satellite

Ground track
Ground track

The orbit data is extracted from the following two-line orbital elements,

1 28420U 04037B   18049.67117508  .00000006  00000-0 -27126-4 0  9996
2 28420  82.4844  72.3718 0014986  98.9737 261.3039 12.45271417609381
Epoch (UTC): 18 February 2018 16:06:29
Eccentricity: 0.0014986
inclination: 82.4844°
perigee height: 1472 km
apogee height: 1496 km
right ascension of ascending node: 72.3718°
argument of perigee: 98.9737°
revolutions per day: 12.45271417
mean anomaly at epoch: 261.3039°
orbit number at epoch: 60938

The dashed part of the orbit path shows where the satellite is in the earth's shadow,  

DLR